Rome Ciampino, Italy

3:02 AM CEST on April 28, 2017 (GMT +0200)
Ciampino

Weather History for LIRA - December, 2014

Change the Weather History Date:

Sunday, December 7, 2014

  Actual Average Record
Temperature  
Mean Temperature 50 °F -  
Max Temperature 57 °F 55 °F 66 °F (2004)
Min Temperature 42 °F 39 °F 28 °F (2012)
Degree Days  
Heating Degree Days 14    
Moisture  
Dew Point 45 °F    
Average Humidity 84    
Maximum Humidity 93    
Minimum Humidity 67    
Precipitation  
Precipitation 0.00 in 0.14 in - ()
Sea Level Pressure  
Sea Level Pressure 29.89 in    
Wind  
Wind Speed 3 mph ()    
Max Wind Speed 7 mph    
Max Gust Speed -    
Visibility 6.0 miles    
Events Rain , Thunderstorm    
Averages and records for this station are not official NWS values.
T = Trace of Precipitation, MM = Missing Value Source: Averaged Metar Reports

Daily Weather History Graph

Daily Weather History Graph

Search for Another Location

Airport or City:

Trip Planner

Search our weather history database for the weather conditions in past years. The results will help you decide how hot, cold, wet, or windy it might be!

Date:

Astronomy

Dec. 07, 2014 Rise Set
Actual Time 7:23 AM CET 4:38 PM CET
Civil Twilight 6:52 AM CET 5:10 PM CET
Nautical Twilight 6:17 AM CET 5:45 PM CET
Astronomical Twilight 5:43 AM CET 6:18 PM CET
Moon 5:53 PM CET (12/7) 7:51 AM CET (12/7)
Length of Visible Light 10h 18m
Length of Day
9h 15m
Full, 99% of the Moon is Illuminated
Dec 7
Full
Dec 14
Last Quarter
Dec 22
New
Dec 28
First Quarter
Jan 5
Full

Hourly Weather History & Observations

Time (CET) Temp. Windchill Dew Point Humidity Pressure Visibility Wind Dir Wind Speed Gust Speed Precip Events Conditions
12:15 AM 51.8 °F - 46.4 °F 82% 29.92 in 6.2 mi South 3.5 mph - N/A   Scattered Clouds
12:45 AM 51.8 °F - 46.4 °F 82% 29.92 in 6.2 mi South 3.5 mph - N/A   Scattered Clouds
1:00 AM 51 °F - 46 °F 79% 29.95 in 6 mi South 3.5 mph - -   Partly Cloudy
1:15 AM 50.0 °F - 44.6 °F 82% 29.92 in 6.2 mi SSE 5.8 mph - N/A   Scattered Clouds
1:45 AM 48.2 °F - 46.4 °F 93% 29.92 in 6.2 mi SSE 4.6 mph - N/A   Scattered Clouds
2:15 AM 48.2 °F - 44.6 °F 87% 29.92 in 6.2 mi SSE 5.8 mph - N/A   Scattered Clouds
2:45 AM 48.2 °F - 44.6 °F 87% 29.92 in 6.2 mi SSE 5.8 mph - N/A   Scattered Clouds
3:15 AM 48.2 °F - 44.6 °F 87% 29.92 in 6.2 mi SSE 6.9 mph - N/A   Partly Cloudy
3:45 AM 48.2 °F - 46.4 °F 93% 29.92 in 5.0 mi South 3.5 mph - N/A Rain Light Rain
4:00 AM 49 °F - 46 °F 83% 29.93 in 5 mi South 3.5 mph - - Rain Light Rain
4:15 AM 50.0 °F - 46.4 °F 87% 29.92 in 5.0 mi South 6.9 mph - N/A Rain , Thunderstorm Light Thunderstorms and Rain
4:45 AM 50.0 °F - 46.4 °F 87% 29.92 in 6.2 mi SSE 3.5 mph - N/A   Partly Cloudy
5:15 AM 48.2 °F - 46.4 °F 93% 29.92 in 6.2 mi SSW 1.2 mph - N/A   Partly Cloudy
5:45 AM 48.2 °F - 46.4 °F 93% 29.92 in 6.2 mi South 2.3 mph - N/A   Partly Cloudy
6:15 AM 48.2 °F - 46.4 °F 93% 29.92 in 6.2 mi SSE 6.9 mph - N/A   Partly Cloudy
6:45 AM 48.2 °F - 46.4 °F 93% 29.92 in 6.2 mi SSE 6.9 mph - N/A   Partly Cloudy
7:00 AM 48 °F - 46 °F 88% 29.93 in 6 mi SSE 6.9 mph - -   Partly Cloudy
7:15 AM 48.2 °F - 44.6 °F 87% 29.89 in 6.2 mi SE 3.5 mph - N/A   Partly Cloudy
7:45 AM 46.4 °F 43.5 °F 44.6 °F 93% 29.89 in 6.2 mi SE 5.8 mph - N/A   Partly Cloudy
8:15 AM 46.4 °F - 44.6 °F 93% 29.89 in 6.2 mi SSE 2.3 mph - N/A   Partly Cloudy
8:45 AM 48.2 °F - 46.4 °F 93% 29.92 in 6.2 mi Calm Calm - N/A   Partly Cloudy
9:15 AM 50.0 °F - 46.4 °F 87% 29.92 in 6.2 mi Calm Calm - N/A   Partly Cloudy
9:45 AM 51.8 °F - 46.4 °F 82% 29.92 in 6.2 mi Calm Calm - N/A   Partly Cloudy
10:00 AM 52 °F - 46 °F 71% 29.92 in 6 mi Calm Calm - -   Scattered Clouds
10:15 AM 53.6 °F - 46.4 °F 77% 29.92 in 6.2 mi NE 1.2 mph - N/A   Partly Cloudy
10:45 AM 53.6 °F - 48.2 °F 82% 29.92 in 6.2 mi Calm Calm - N/A   Partly Cloudy
11:15 AM 53.6 °F - 48.2 °F 82% 29.92 in 6.2 mi Calm Calm - N/A   Partly Cloudy
11:45 AM 53.6 °F - 48.2 °F 82% 29.89 in 6.2 mi Calm Calm - N/A   Partly Cloudy
12:15 PM 53.6 °F - 46.4 °F 77% 29.89 in 6.2 mi Calm Calm - N/A   Partly Cloudy
12:45 PM 53.6 °F - 46.4 °F 77% 29.89 in 6.2 mi Calm Calm - N/A   Partly Cloudy
1:00 PM 54 °F - 47 °F 68% 29.91 in 6 mi Calm Calm - -   Mostly Cloudy
1:15 PM 55.4 °F - 46.4 °F 72% 29.86 in 6.2 mi SSE 1.2 mph - N/A   Partly Cloudy
1:45 PM 55.4 °F - 44.6 °F 67% 29.86 in 6.2 mi Calm Calm - N/A   Partly Cloudy
2:15 PM 55.4 °F - 46.4 °F 72% 29.86 in 6.2 mi East 2.3 mph - N/A   Partly Cloudy
2:45 PM 55.4 °F - 46.4 °F 72% 29.86 in 6.2 mi ESE 2.3 mph - N/A   Partly Cloudy
3:15 PM 53.6 °F - 46.4 °F 77% 29.86 in 6.2 mi SE 3.5 mph - N/A   Partly Cloudy
3:45 PM 53.6 °F - 44.6 °F 72% 29.86 in 6.2 mi SE 1.2 mph - N/A   Partly Cloudy
4:00 PM 53 °F - 45 °F 67% 29.88 in 6 mi SE 1.2 mph - -   Mostly Cloudy
4:15 PM 51.8 °F - 46.4 °F 82% 29.86 in 6.2 mi SSW 1.2 mph - N/A   Partly Cloudy
4:45 PM 51.8 °F - 44.6 °F 76% 29.86 in 6.2 mi Calm Calm - N/A   Partly Cloudy
5:15 PM 50.0 °F - 46.4 °F 87% 29.86 in 6.2 mi Calm Calm - N/A   Partly Cloudy
5:45 PM 50.0 °F - 46.4 °F 87% 29.86 in 6.2 mi Calm Calm - N/A   Partly Cloudy
6:15 PM 48.2 °F - 44.6 °F 87% 29.86 in 6.2 mi Calm Calm - N/A   Partly Cloudy
6:45 PM 46.4 °F 45.2 °F 42.8 °F 87% 29.86 in 6.2 mi ESE 3.5 mph - N/A   Partly Cloudy
7:00 PM 46 °F - 43 °F 84% 29.88 in 6 mi ESE 3.5 mph - -   Scattered Clouds
7:15 PM 46.4 °F - 42.8 °F 87% 29.86 in 6.2 mi Calm Calm - N/A   Partly Cloudy
7:45 PM 46.4 °F - 42.8 °F 87% 29.86 in - Calm Calm - N/A   Clear
8:15 PM 46.4 °F - 42.8 °F 87% 29.86 in - Calm Calm - N/A   Clear
8:45 PM 46.4 °F - 42.8 °F 87% 29.86 in - ENE 2.3 mph - N/A   Clear
9:15 PM 46.4 °F - 42.8 °F 87% 29.86 in - Calm Calm - N/A   Clear
9:45 PM 44.6 °F - 42.8 °F 93% 29.89 in - NE 1.2 mph - N/A   Clear
10:00 PM 45 °F - 43 °F 88% 29.90 in 6 mi NE 1.2 mph - -  
10:15 PM 44.6 °F - 41.0 °F 87% 29.89 in - ENE 2.3 mph - N/A   Clear
10:45 PM 44.6 °F - 41.0 °F 87% 29.89 in - NE 2.3 mph - N/A   Clear
11:15 PM 44.6 °F - 41.0 °F 87% 29.86 in 5.0 mi NNE 2.3 mph - N/A   Unknown
11:45 PM 42.8 °F 39.3 °F 41.0 °F 93% 29.86 in 5.0 mi NE 5.8 mph - N/A   Unknown